, AK

(GMT )
Anchorage

Weather History for PANC - November, 2012

Change the Weather History Date:

Friday, November 30, 2012

  Actual Average Record
Temperature  
Mean Temperature 13 °F 20 °F  
Max Temperature 22 °F 25 °F 47 °F (2002)
Min Temperature 3 °F 14 °F -15 °F (1990)
Degree Days  
Heating Degree Days 52    
Month to date heating degree days 1409  
Since 1 July heating degree days 3452  
Cooling Degree Days 0    
Month to date cooling degree days 0  
Year to date cooling degree days 0  
Moisture  
Dew Point 3 °F    
Average Humidity 58    
Maximum Humidity 80    
Minimum Humidity 36    
Precipitation  
Precipitation 0.00 in 0.04 in 0.52 in (1976)
Month to date precipitation 0.23 1.16  
Year to date precipitation 19.65 15.47  
Snow  
Snow 0.00 in 0.60 in 9.20 in (1996)
Month to date snowfall 3.3 13.1  
Since 1 July snowfall 6.7 21.4  
Since 1 September snowfall 21.4  
Snow Depth 2.00 in    
Sea Level Pressure  
Sea Level Pressure 29.61 in    
Wind  
Wind Speed 13 mph (North)    
Max Wind Speed 21 mph    
Max Gust Speed 29 mph    
Visibility 10 miles    
Events      
T = Trace of Precipitation, MM = Missing Value Source: NWS Daily Summary

Daily Weather History Graph

Daily Weather History Graph

Search for Another Location

Airport or City:

Trip Planner

Search our weather history database for the weather conditions in past years. The results will help you decide how hot, cold, wet, or windy it might be!

Date:

Astronomy

Nov. 30, 2012 Rise Set
Actual Time 9:44 AM AKST 3:52 PM AKST
Civil Twilight 8:46 AM AKST 4:50 PM AKST
Nautical Twilight 7:49 AM AKST 5:47 PM AKST
Astronomical Twilight 6:57 AM AKST 6:40 PM AKST
Moon 6:02 PM AKST (11/30) 11:19 AM AKST (11/30)
Length of Visible Light 8h 03m
Length of Day
6h 08m
Waning Gibbous, 95% of the Moon is Illuminated
Nov 30
Waning Gibbous
Dec 6
Last Quarter
Dec 12
New
Dec 19
First Quarter
Dec 28
Full

Hourly Weather History & Observations

Time (AKST) Temp. Windchill Dew Point Humidity Pressure Visibility Wind Dir Wind Speed Gust Speed Precip Events Conditions
12:53 AM 12.9 °F - 3.0 °F 65% 29.59 in 10.0 mi Calm Calm - N/A   Clear
1:53 AM 18.0 °F 9.8 °F -2.0 °F 41% 29.60 in 10.0 mi North 5.8 mph - N/A   Clear
3:53 AM 7.0 °F - 1.0 °F 77% 29.62 in 10.0 mi Calm Calm - N/A   Clear
4:53 AM 19.9 °F 7.3 °F 3.0 °F 48% 29.62 in 10.0 mi North 12.7 mph - N/A   Clear
5:53 AM 24.1 °F 12.5 °F 6.1 °F 46% 29.62 in 10.0 mi NNE 12.7 mph - N/A   Clear
6:53 AM 21.9 °F 9.2 °F 3.9 °F 46% 29.62 in 10.0 mi NNE 13.8 mph - N/A   Clear
7:53 AM 23.0 °F 10.1 °F 3.9 °F 44% 29.60 in 10.0 mi North 15.0 mph - N/A   Clear
8:53 AM 21.9 °F 11.7 °F 3.9 °F 46% 29.60 in 10.0 mi North 9.2 mph - N/A   Clear
9:53 AM 21.9 °F 9.2 °F 3.9 °F 46% 29.60 in 10.0 mi North 13.8 mph - N/A   Clear
10:53 AM 21.9 °F 8.2 °F 3.9 °F 46% 29.62 in 10.0 mi North 16.1 mph - N/A   Clear
11:53 AM 23.0 °F 11.7 °F 3.0 °F 42% 29.62 in 10.0 mi North 11.5 mph 21.9 mph N/A   Clear
12:53 PM 24.1 °F 9.8 °F 3.9 °F 42% 29.62 in 10.0 mi North 19.6 mph 28.8 mph N/A   Clear
1:53 PM 25.0 °F 13.1 °F 1.9 °F 37% 29.62 in 10.0 mi North 13.8 mph 25.3 mph N/A   Clear
2:53 PM 24.1 °F 12.5 °F 5.0 °F 44% 29.61 in 10.0 mi North 12.7 mph - N/A   Clear
3:53 PM 24.1 °F 11.5 °F 3.9 °F 42% 29.61 in 10.0 mi North 15.0 mph - N/A   Clear
4:53 PM 21.9 °F 7.3 °F 5.0 °F 48% 29.61 in 10.0 mi NNW 18.4 mph 27.6 mph N/A   Clear
5:53 PM 21.0 °F 5.7 °F 3.0 °F 46% 29.61 in 10.0 mi North 19.6 mph 25.3 mph N/A   Clear
6:53 PM 21.0 °F 5.4 °F 3.0 °F 46% 29.61 in 10.0 mi North 20.7 mph 27.6 mph N/A   Clear
7:53 PM 21.0 °F 6.2 °F 1.9 °F 44% 29.60 in 10.0 mi NNW 18.4 mph - N/A   Clear
8:53 PM 21.0 °F 7.6 °F 3.0 °F 46% 29.61 in 10.0 mi North 15.0 mph 26.5 mph N/A   Clear
9:53 PM 21.0 °F 6.2 °F 1.9 °F 44% 29.60 in 10.0 mi North 18.4 mph 24.2 mph N/A   Clear
10:53 PM 21.0 °F 6.6 °F 1.9 °F 44% 29.59 in 10.0 mi North 17.3 mph 23.0 mph N/A   Clear
11:53 PM 21.9 °F 8.2 °F 1.9 °F 42% 29.58 in 10.0 mi North 16.1 mph 25.3 mph N/A   Clear